Flag for United Kingdom Weather past 2 weeks in Edinburgh, Scotland, United Kingdom

Now
45 °F

Clear.


Feels Like: 43 °F
Forecast: 45 / 55 °F
Wind: 3 mph from North

Location: Edinburgh Airport

Current Time: May 23, 2015 at 2:25:18 AM

Latest Report: May 23, 2015 at 1:50 AM


Visibility: 10 mi

Pressure: 30.30 "Hg

Humidity: 81%

Dew point: 39 °F

Location of EdinburghLocation

Historic Weather in Edinburgh — Graph

°F

Edinburgh temperature yesterday

Maximum temperature yesterday: 61 °F (at 1:20 PM)
Minimum temperature yesterday: 46 °F (at 11:50 PM)
Average temperature yesterday: 56 °F

Past Weeks' High & Low Weather Summary

 TemperatureHumidityPressure
High61 °F (May 10, 2:50 PM)100% (May 8, 11:20 PM)30.30 "Hg (May 8, 11:20 PM)
Low32 °F (May 8, 1:50 AM)45% (May 20, 1:20 PM)29.36 "Hg (May 18, 6:20 PM)
Average50 °F75%29.91 "Hg
* Reported May 8 1:20 AM — May 23 1:20 AM, Edinburgh, Weather by CustomWeather, © 2015

Note: Actual official high and low records may vary slightly from our data, if they occured in-between our weather recording intervals... More about our weather records

Advertising

Edinburgh weather history for previous 24 hours

 ConditionsComfort  
Time TempWeatherWind HumidityBarometerVisibility
1:20 AM
Sat, May 23
45 °FClear.3 mph81%30.30 "Hg10 mi
12:50 AM46 °FPassing clouds.6 mph76%30.30 "HgN/A
12:20 AM46 °FPassing clouds.5 mph76%30.27 "HgN/A
11:50 PM
Fri, May 22
46 °FClear.6 mph82%30.27 "Hg10 mi
11:20 PM48 °FClear.5 mph76%30.27 "Hg10 mi
10:50 PM50 °FPassing clouds.5 mph71%30.27 "HgN/A
10:20 PM50 °FPassing clouds.5 mph71%30.27 "HgN/A
9:50 PM52 °FPassing clouds.6 mph67%30.24 "HgN/A
9:20 PM52 °FPassing clouds.6 mph67%30.24 "HgN/A
8:50 PM52 °FPassing clouds.6 mph72%30.24 "HgN/A
8:20 PM54 °FScattered clouds.9 mph67%30.21 "HgN/A
7:50 PM54 °FPassing clouds.6 mph67%30.21 "HgN/A
7:20 PM55 °FPassing clouds.10 mph63%30.21 "HgN/A
6:50 PM55 °FPassing clouds.9 mph63%30.18 "HgN/A
6:20 PM57 °FScattered clouds.12 mph59%30.18 "HgN/A
5:50 PM57 °FScattered clouds.12 mph59%30.18 "HgN/A
5:20 PM59 °FPartly sunny.9 mph63%30.15 "HgN/A
4:50 PM59 °FPartly sunny.12 mph59%30.15 "HgN/A
4:20 PM59 °FPassing clouds.14 mph59%30.15 "HgN/A
3:50 PM59 °FPassing clouds.14 mph55%30.15 "HgN/A
3:20 PM61 °FScattered clouds.15 mph55%30.12 "HgN/A
2:50 PM61 °FScattered clouds.20 mph59%30.12 "HgN/A
2:20 PM61 °FScattered clouds.17 mph59%30.12 "HgN/A
1:50 PM61 °FPartly sunny.18 mph63%30.12 "HgN/A
1:20 PM61 °FPartly sunny.17 mph68%30.09 "HgN/A
12:50 PM59 °FPartly sunny.17 mph72%30.09 "HgN/A
12:20 PM59 °FPartly sunny.18 mph72%30.09 "HgN/A
11:50 AM59 °FPartly sunny.16 mph72%30.09 "HgN/A
11:20 AM59 °FPartly sunny.21 mph72%30.09 "HgN/A
10:50 AM59 °FPartly sunny.17 mph72%30.09 "HgN/A
10:20 AM59 °FBroken clouds.22 mph77%30.09 "HgN/A
9:50 AM57 °FPartly sunny.21 mph77%30.09 "HgN/A
9:20 AM55 °FMostly cloudy.16 mph88%30.09 "HgN/A
8:50 AM54 °FPartly sunny.16 mph88%30.09 "HgN/A
8:20 AM55 °FPartly sunny.14 mph82%30.09 "HgN/A
7:50 AM55 °FPartly sunny.18 mph82%30.09 "HgN/A
7:20 AM55 °FPartly sunny.16 mph82%30.09 "HgN/A
6:50 AM55 °FPartly sunny.14 mph82%30.09 "HgN/A
6:20 AM55 °FPartly sunny.15 mph88%30.09 "HgN/A
5:50 AM55 °FPartly sunny.13 mph88%30.09 "HgN/A
5:20 AM55 °FPassing clouds.14 mph88%30.09 "HgN/A
4:50 AM55 °FPassing clouds.14 mph88%30.09 "HgN/A
4:20 AM55 °FMostly cloudy.16 mph88%30.09 "HgN/A
3:50 AM55 °FMostly cloudy.13 mph88%30.09 "HgN/A
3:20 AM55 °FPassing clouds.16 mph88%30.12 "HgN/A
2:50 AM55 °FPassing clouds.14 mph88%30.12 "HgN/A
2:20 AM55 °FPassing clouds.14 mph88%30.12 "HgN/A
Weather by CustomWeather, © 2015

See weather overviewHow to use our weather pages